Weather History for Clarinda, IA

Change the Weather History Date:

Monday, December 17, 2012

  Actual Average Record
Temperature  
Mean Temperature 28 °F -  
Max Temperature 32 °F 34 °F 51 °F (2001)
Min Temperature 24 °F 16 °F -2 °F (2000)
Degree Days  
Heating Degree Days 37    
Moisture  
Dew Point 25 °F    
Average Humidity 89    
Maximum Humidity 93    
Minimum Humidity 80    
Precipitation  
Precipitation 0.00 in - - ()
Sea Level Pressure  
Sea Level Pressure 29.72 in    
Wind  
Wind Speed 2 mph (SSW)    
Max Wind Speed 8 mph    
Max Gust Speed -    
Visibility 5 miles    
Events      
Averages and records for this station are not official NWS values.
T = Trace of Precipitation, MM = Missing Value Source: NWS Daily Summary

Daily Weather History Graph

Daily Weather History Graph

Search for Another Location

Airport:

Trip Planner

Search our weather history database for the weather conditions in past years. The results will help you decide how hot, cold, wet, or windy it might be!

Date:

Astronomy

Dec. 17, 2012 Rise Set
Actual Time 7:38 AM CST 4:54 PM CST
Civil Twilight 7:07 AM CST 5:25 PM CST
Nautical Twilight 6:33 AM CST 5:59 PM CST
Astronomical Twilight 5:59 AM CST 6:33 PM CST
Moon 10:46 AM CST (12/17) 10:18 PM CST (12/17)
Length of Visible Light 10h 17m
Length of Day
9h 15m
Waxing Crescent, 25% of the Moon is Illuminated
Dec 17
Waxing Crescent
Dec 19
First Quarter
Dec 28
Full
Jan 4
Last Quarter
Jan 11
New

Hourly Weather History & Observations

Time (CST) Temp. Windchill Dew Point Humidity Pressure Visibility Wind Dir Wind Speed Gust Speed Precip Events Conditions
12:15 AM 26.6 °F - 24.8 °F 93% 29.78 in 3.0 mi Calm Calm - N/A   Scattered Clouds
12:35 AM 26.6 °F 22.6 °F 24.8 °F 93% 29.78 in 4.0 mi West 3.5 mph - N/A   Scattered Clouds
12:55 AM 26.6 °F - 24.8 °F 93% 29.78 in 7.0 mi Calm Calm - N/A   Scattered Clouds
1:15 AM 28.4 °F - 26.6 °F 93% 29.77 in 7.0 mi Calm Calm - N/A   Mostly Cloudy
1:35 AM 28.4 °F 23.3 °F 24.8 °F 86% 29.77 in 7.0 mi NW 4.6 mph - N/A   Scattered Clouds
1:55 AM 28.4 °F - 24.8 °F 86% 29.77 in 7.0 mi Calm Calm - N/A   Clear
2:15 AM 28.4 °F - 24.8 °F 86% 29.77 in 7.0 mi Calm Calm - N/A   Clear
2:35 AM 28.4 °F - 24.8 °F 86% 29.77 in 7.0 mi Calm Calm - N/A   Clear
2:55 AM 26.6 °F - 24.8 °F 93% 29.75 in 4.0 mi Calm Calm - N/A   Clear
3:15 AM 26.6 °F - 24.8 °F 93% 29.75 in 4.0 mi Calm Calm - N/A   Clear
3:35 AM 24.8 °F - 21.2 °F 86% 29.76 in 4.0 mi Calm Calm - N/A   Clear
3:55 AM 24.8 °F - 21.2 °F 86% 29.76 in 4.0 mi Calm Calm - N/A   Clear
4:15 AM 24.8 °F - 23.0 °F 93% 29.76 in 4.0 mi Calm Calm - N/A   Clear
4:35 AM 26.6 °F - 23.0 °F 86% 29.75 in 4.0 mi Calm Calm - N/A   Scattered Clouds
4:55 AM 26.6 °F - 23.0 °F 86% 29.75 in 4.0 mi Calm Calm - N/A   Mostly Cloudy
5:15 AM 24.8 °F - 23.0 °F 93% 29.75 in 4.0 mi Calm Calm - N/A   Overcast
5:35 AM 26.6 °F - 23.0 °F 86% 29.75 in 4.0 mi Calm Calm - N/A   Overcast
5:55 AM 26.6 °F - 24.8 °F 93% 29.75 in 4.0 mi Calm Calm - N/A   Overcast
6:15 AM 26.6 °F - 24.8 °F 93% 29.76 in 4.0 mi Calm Calm - N/A   Overcast
6:35 AM 26.6 °F - 24.8 °F 93% 29.76 in 4.0 mi Calm Calm - N/A   Overcast
6:55 AM 24.8 °F - 23.0 °F 93% 29.76 in 3.0 mi Calm Calm - N/A   Mostly Cloudy
7:15 AM 26.6 °F - 23.0 °F 86% 29.76 in 4.0 mi Calm Calm - N/A   Mostly Cloudy
7:35 AM 26.6 °F - 24.8 °F 93% 29.75 in 3.0 mi Calm Calm - N/A   Overcast
7:55 AM 26.6 °F - 24.8 °F 93% 29.75 in 3.0 mi Calm Calm - N/A   Overcast
8:15 AM 26.6 °F - 24.8 °F 93% 29.75 in 3.0 mi Calm Calm - N/A   Overcast
8:35 AM 26.6 °F - 24.8 °F 93% 29.75 in 3.0 mi Calm Calm - N/A   Overcast
8:55 AM 28.4 °F - 24.8 °F 86% 29.74 in 3.0 mi Calm Calm - N/A   Mostly Cloudy
9:15 AM 28.4 °F 24.6 °F 26.6 °F 93% 29.74 in 3.0 mi South 3.5 mph - N/A   Scattered Clouds
9:35 AM 30.2 °F 26.7 °F 26.6 °F 86% 29.73 in 3.0 mi SSE 3.5 mph - N/A   Clear
9:55 AM 30.2 °F 26.7 °F 26.6 °F 86% 29.73 in 4.0 mi SSE 3.5 mph - N/A   Scattered Clouds
10:15 AM 30.2 °F 25.4 °F 26.6 °F 86% 29.73 in 4.0 mi South 4.6 mph - N/A   Scattered Clouds
10:35 AM 32.0 °F 26.4 °F 26.6 °F 80% 29.73 in 4.0 mi South 5.8 mph - N/A   Haze
10:55 AM 32.0 °F 26.4 °F 26.6 °F 80% 29.73 in 3.0 mi SSW 5.8 mph - N/A   Haze
11:15 AM 32.0 °F 25.6 °F 26.6 °F 80% 29.74 in 3.0 mi SSW 6.9 mph - N/A   Haze
11:35 AM 32.0 °F 25.6 °F 28.4 °F 87% 29.73 in 3.0 mi SSW 6.9 mph - N/A   Overcast
11:55 AM 30.2 °F 22.6 °F 26.6 °F 86% 29.73 in 3.0 mi SSW 8.1 mph - N/A   Overcast
12:15 PM 30.2 °F 23.4 °F 26.6 °F 86% 29.72 in 3.0 mi SW 6.9 mph - N/A   Overcast
12:35 PM 30.2 °F 22.6 °F 26.6 °F 86% 29.71 in 1.5 mi SW 8.1 mph - N/A   Overcast
12:55 PM 30.2 °F 22.6 °F 26.6 °F 86% 29.71 in 1.0 mi SW 8.1 mph - N/A   Overcast
1:15 PM 30.2 °F 22.6 °F 26.6 °F 86% 29.70 in 3.0 mi SW 8.1 mph - N/A   Overcast
1:35 PM 28.4 °F 21.2 °F 26.6 °F 93% 29.69 in 4.0 mi SW 6.9 mph - N/A   Overcast
1:55 PM 28.4 °F 21.2 °F 26.6 °F 93% 29.69 in 4.0 mi SW 6.9 mph - N/A   Overcast
2:15 PM 30.2 °F 24.3 °F 26.6 °F 86% 29.69 in 2.5 mi SSW 5.8 mph - N/A   Overcast
2:35 PM 30.2 °F 24.3 °F 26.6 °F 86% 29.69 in 2.5 mi SW 5.8 mph - N/A   Overcast
2:55 PM 30.2 °F 24.3 °F 26.6 °F 86% 29.69 in 4.0 mi SW 5.8 mph - N/A   Overcast
3:15 PM 30.2 °F 24.3 °F 26.6 °F 86% 29.69 in 7.0 mi SW 5.8 mph - N/A   Overcast
3:35 PM 30.2 °F 22.6 °F 26.6 °F 86% 29.70 in 10.0 mi SW 8.1 mph - N/A   Overcast
3:55 PM 30.2 °F 25.4 °F 26.6 °F 86% 29.69 in 10.0 mi SSW 4.6 mph - N/A   Overcast
6:35 PM 30.2 °F - 26.6 °F 86% 29.69 in 7.0 mi Calm Calm - N/A   Overcast
6:55 PM 30.2 °F - 26.6 °F 86% 29.69 in 7.0 mi Calm Calm - N/A   Overcast
7:15 PM 30.2 °F - 26.6 °F 86% 29.68 in 7.0 mi Calm Calm - N/A   Overcast
7:35 PM 30.2 °F - 26.6 °F 86% 29.69 in 7.0 mi Calm Calm - N/A   Overcast
7:55 PM 28.4 °F - 26.6 °F 93% 29.69 in 7.0 mi Calm Calm - N/A   Overcast
8:15 PM 28.4 °F - 24.8 °F 86% 29.69 in 5.0 mi Calm Calm - N/A   Scattered Clouds
8:35 PM 28.4 °F - 24.8 °F 86% 29.69 in 5.0 mi Calm Calm - N/A   Clear
8:55 PM 28.4 °F - 24.8 °F 86% 29.68 in 7.0 mi Calm Calm - N/A   Clear
9:15 PM 26.6 °F - 24.8 °F 93% 29.68 in 7.0 mi Calm Calm - N/A   Clear
9:35 PM 28.4 °F - 26.6 °F 93% 29.68 in 7.0 mi Calm Calm - N/A   Clear
9:55 PM 28.4 °F - 26.6 °F 93% 29.67 in 7.0 mi Calm Calm - N/A   Clear
10:15 PM 30.2 °F 26.7 °F 26.6 °F 86% 29.67 in 7.0 mi SE 3.5 mph - N/A   Clear
10:35 PM 30.2 °F - 26.6 °F 86% 29.67 in 7.0 mi Calm Calm - N/A   Clear
10:55 PM 30.2 °F - 26.6 °F 86% 29.66 in 7.0 mi Calm Calm - N/A   Clear
11:15 PM 28.4 °F - 26.6 °F 93% 29.65 in 7.0 mi Calm Calm - N/A   Clear
11:35 PM 28.4 °F 24.6 °F 26.6 °F 93% 29.64 in 7.0 mi SE 3.5 mph - N/A   Clear
11:55 PM 28.4 °F - 26.6 °F 93% 29.64 in 7.0 mi Calm Calm - N/A   Clear